Location: Fernhill
(41.0167°S, 175.6333°E)
Time: 10:58:07
(UTC+00:00)

IRIDIUM 103 - Pass Details

Date: 08 November 2025
Orbit: 776 x 779 km, 86.4° (Epoch: 10 December)

Event Time Altitude Azimuth Distance (km) Brightness Sun altitude
Exits shadow 09:01:59 33° 23° (NNE) 1,291 5.0 -18.9°
Maximum altitude 09:04:13 62° 91° (E) 881 4.4 -19.2°
Drops below altitude 10° 09:09:27 10° 171° (S) 2,362 7.3 -19.9°
Sets 09:11:50 0° 173° (S) 3,298 8.2 -20.2°
